[Iaude] MPEC J150: 2024 JO3 [a=2.70,e=0.63,i=4.6,H=24.7]

mpec at cfa.harvard.edu mpec at cfa.harvard.edu
Wed May 8 06:58:30 EDT 2024


M.P.E.C. 2024-J150                                  Issued 2024 May 8, 10:56 UT

     The Minor Planet Electronic Circulars contain information on unusual
         minor planets, routine data on comets and natural satellites,
         and occasional editorial announcements.  They are published
    on behalf of Division F of the International Astronomical Union by the
          Minor Planet Center, Smithsonian Astrophysical Observatory,
                          Cambridge, MA 02138, U.S.A.
			  
             Prepared using the Tamkin Foundation Computer Network

                              MPC at CFA.HARVARD.EDU
            URL https://www.minorplanetcenter.net/    ISSN 1523-6714

                                    2024 JO3                                    


Observations:
     K24J03O*1C2024 05 06.28779915 10 58.926+57 55 42.85         21.32GVEJ150G96
     K24J03O 1C2024 05 06.29304415 11 06.029+57 56 11.80         21.45GVEJ150G96
     K24J03O 1C2024 05 06.29828615 11 13.225+57 56 42.07         21.31GVEJ150G96
     K24J03O 1C2024 05 06.30351715 11 20.368+57 57 11.70         20.87GVEJ150G96
     K24J03O KC2024 05 06.44158815 14 31.590+58 09 33.80         21.03GVEJ150I52
     K24J03O KC2024 05 06.44531415 14 36.870+58 09 53.00         20.81GVEJ150I52
     K24J03O KC2024 05 06.44904015 14 42.210+58 10 11.80         20.78GVEJ150I52
     K24J03O KC2024 05 06.45277115 14 47.450+58 10 30.80         20.69GVEJ150I52
     K24J03O KC2024 05 06.45652815 14 52.770+58 10 50.70         20.56GVEJ150I52
     K24J03O KC2024 05 07.19696715 34 31.31 +59 15 08.7          22.0 GVEJ150H21
     K24J03O KC2024 05 07.20536115 34 44.74 +59 15 51.0          22.0 GVEJ150H21
     K24J03O KC2024 05 07.20795815 34 53.123+59 15 58.60         21.4 GVEJ150H01
     K24J03O KC2024 05 07.21044115 34 57.936+59 16 10.56         22.06GVEJ150I52
     K24J03O KC2024 05 07.21095515 34 53.69 +59 16 19.1          21.7 GVEJ150H21
     K24J03O KC2024 05 07.21224115 35 00.805+59 16 20.10         21.64GVEJ150I52
     K24J03O KC2024 05 07.21379815 35 02.471+59 16 29.11         21.5 GVEJ150H01
     K24J03O KC2024 05 07.21404515 35 03.750+59 16 29.53         21.70GVEJ150I52
     K24J03O KC2024 05 07.21584915 35 06.630+59 16 39.11         22.01GVEJ150I52
     K24J03O KC2024 05 07.22188115 35 15.406+59 17 11.03         22.0 GVEJ150H01
     K24J03O KC2024 05 07.22823815 35 25.611+59 17 43.65         21.1 GVEJ150H01
     K24J03O KC2024 05 08.27905416 06 58.14 +60 31 25.5          21.4 GVEJ150H21
     K24J03O KC2024 05 08.28744416 07 13.76 +60 31 55.3          21.1 GVEJ150H21
     K24J03O KC2024 05 08.29313216 07 24.32 +60 32 14.8          21.4 GVEJ150H21
     K24J03O KC2024 05 08.35982916 09 34.333+60 36 16.45         21.22GVEJ150I52
     K24J03O KC2024 05 08.36970916 09 52.751+60 36 48.96         21.36GVEJ150I52
     K24J03O KC2024 05 08.37703316 10 06.474+60 37 12.47         21.06GVEJ150I52
     K24J03O KC2024 05 08.37969516 10 11.460+60 37 21.18         20.69GVEJ150I52

Observer details:
G96 Mt. Lemmon Survey.  Observer G. J. Leonard.  Measurers T. Beuden, V. F.
    Carvajal, D. Fay, J. B. Fazekas, D. C. Fuls, A. R. Gibbs, A. D. Grauer, H.
    Groeller, J. K. Hogan, R. A. Kowalski, S. M. Larson, G. J. Leonard, D.
    Rankin, R. L. Seaman, F. C. Shelly, K. W. Wierzchos.  1.5-m reflector +
    10K CCD.
H01 Magdalena Ridge Observatory, Socorro.  Observers W. H. Ryan, E. V. Ryan.
    Measurer W. H. Ryan.  2.4-m f/8.9 Ritchey-Chretien + CCD.
H21 Astronomical Research Observatory, Westfield.  Observer R. Holmes.
    Measurers T. Linder, R. Holmes, L. Horn.  0.76-m f/3.0 astrograph + CCD.
I52 Steward Observatory, Mt. Lemmon Station.  Observers R. A. Kowalski, H.
    Groeller.  Measurers T. Beuden, V. F. Carvajal, D. Fay, J. B. Fazekas, D.
    C. Fuls, A. R. Gibbs, A. D. Grauer, H. Groeller, J. K. Hogan, R. A.
    Kowalski, S. M. Larson, G. J. Leonard, D. Rankin, R. L. Seaman, F. C.
    Shelly, K. W. Wierzchos.  1.0-m prime focus + CCD.

Orbital elements:
2024 JO3                                                 Earth MOID = 0.0222 AU
Epoch 2024 Mar. 31.0 TT = JDT 2460400.5                 Veres                   
M 348.04155              (2000.0)            P               Q                  
n   0.22155133     Peri.  145.76879     -0.39508898     +0.91531955             
a   2.7049120      Node   100.85061     -0.85962628     -0.33840071             
e   0.6294914      Incl.    4.55928     -0.32395579     -0.21834622             
P   4.45           H   24.76          G   0.15           U   8                  
Residuals in seconds of arc
240506 G96  0.0   0.3+    240507 H21 (0.4-  0.7+)   240507 H01  0.4-  0.2-
240506 G96  0.2-  0.7-    240507 H21  0.1-  0.4+    240507 H01  0.3-  0.3-
240506 G96  0.2+  0.1-    240507 H01  0.0   0.3-    240508 H21  0.1-  0.3-
240506 G96  0.3+  0.0     240507 I52  0.2+  0.1-    240508 H21  0.2+  0.2+
240506 I52  0.0   0.1+    240507 H21  0.1+  0.2+    240508 H21  0.1+  0.1+
240506 I52  0.0   0.2+    240507 I52  0.0   0.0     240508 I52  0.2+  0.1+
240506 I52  0.4+  0.0     240507 H01  0.2-  0.2-    240508 I52  0.2-  0.1+
240506 I52  0.1-  0.0     240507 I52  0.4+  0.0     240508 I52  0.1-  0.3-
240506 I52  0.4-  0.7+    240507 I52  0.2+  0.1+    240508 I52  0.1-  0.1-

Ephemeris:
2024 JO3                 a,e,i = 2.70, 0.63, 5                   q = 1.0022
Date    TT    R. A. (2000) Decl.     Delta      r    Elong.  Phase     V
2024 04 08    12 32 39.7 +26 20 28   0.2034  1.1744   145.4    28.9    22.9
...
2024 04 23    12 58 43.7 +38 21 08   0.1258  1.0857   127.0    47.7    22.2
...
2024 05 01    13 46 59.4 +49 00 23   0.09101 1.0494   115.1    60.4    21.8
...
2024 05 07    15 29 01.8 +58 58 13   0.07068 1.0284   103.9    72.2    21.6
2024 05 08    15 58 04.1 +60 13 27   0.06813 1.0254   101.8    74.4    21.6
2024 05 09    16 31 16.7 +61 05 03   0.06589 1.0227    99.7    76.7    21.6
...
2024 05 15    20 02 36.7 +52 56 40   0.06084 1.0096    87.1    89.5    21.9
...
2024 05 23    22 01 41.4 +27 33 17   0.07702 1.0023    80.2    95.4    22.6
...
2024 06 07    23 01 04.8 +04 17 40   0.1376  1.0202    88.3    83.9    23.4

M. P. C. Staff               (C) Copyright 2024 MPC           M.P.E.C. 2024-J150





More information about the Iaude mailing list